DECAYED

OBJECT G, 53450 (Decayed)

Orbit data source: Space-Track

You're viewing an Uncataloged Satellite

Recently launched and/or uncataloged satellites may have evolving metadata. Metadata may include but not limited to: Owner, Maufacturer, Bus, Motor, and Mission.

OBJECT G, 53450 was a satellite owned by Changguang WJ (CN) in LEO that was launched on Wed, 10 Aug 2022 UTC via a CHANG ZHENG 6 launch vehicle from the Taiyaun Space Center, China (TSC). Unknown objects in Earth's orbit typically refer to objects detected orbiting the Earth but have not yet been identified or cataloged. These objects could be anything from previously untracked satellites, spent rocket stages, debris from satellite collisions, or even natural meteoroids temporarily captured by Earth's gravity. This object's orbit decayed before it could be identified.

Not visible in the next 10 days
Identifier
53450, 2022-098G
Orbit
Decayed
Country
Flag of CNCN / PRC
Related business
Manufacturer
Changguang WJ
Mission
Decayed Commercial Imaging
Bus & Motor
JL-1, Unknown motor
Mass
42 kg wet, 42 kg dry
Launch date (UTC)
2022-08-10 (4 years ago)
Launch vehicle
CHANG ZHENG 6
Launch site
Taiyaun Space Center, China (TSC)
Object type
Unknown
Shape & HBR
Box + 2 Pan, 0.8 m
Radar Cross Section
2.000 m², Medium (>0.1 m² and < 1m²)

Expand to show TLE details & history
Last TLE update: 2 weeks ago

TLE from 2 weeks ago
0 OBJECT G
1 53450U 22098G   26159.87965612  .06377175  26384-5  50878-3 0  9990
2 53450  97.5472 297.7915 0012929 266.8122  93.1698 16.39559397213888
Epoch: 2026-06-08T21:06Z
TLE epoch observation values (Epoch: 2026-06-08T21:06:42.288Z)
Latitude
Longitude
83.85513°
Altitude
170.7 km
Speed
7.803 km/s
True Right ascension
19h 51m 09s
True Declination
0° 00' 00"
Sunlit
Object was in full shadow at epoch
Visualization orbit readout
Latitude
Unknown
Longitude
Unknown
Altitude
Unknown
Speed
Unknown
Apparent Right ascension
Unknown
Apparent Declination
Unknown
Sunlit
N/A
Visualization observer readout
Local Sidereal Time
21:44:02
Azimuth
Unknown
Elevation
Unknown
Doppler factor
Unknown
Orbital elements
Apogee altitude
172.248 km
Perigee altitude
155.332 km
Semi-major axis
6,541.927 km
Eccentricity
0.00129
Inclination
97.5472°
RAAN
297.7915°
Arg. of periapsis
266.8122°
True anomaly
93.31772°
Mean anomaly
93.1698°
Eccentric anomaly
93.24376°
Mean motion
4.1019 °/min
Orbital period
87.76 mins
BSTAR
0.00050878
Loading maneuver chart data...
Computing Atmospheric mass density...
Loading historical data...
Loading historical data...
Loading historical data...
Loading historical data...
Loading historical data...
Loading historical data...
Loading historical data...

Documentation

Showing up to 5 results
|